NOAA NWS Hourly Roundups by Site

Regional Weather Roundup for Baltimore MD/Washington, DC

To Select Another Site Choose from List

Select Site:  

000
ASUS41 KLWX 160512
RWRLWX

REGIONAL WEATHER ROUNDUP
NATIONAL WEATHER SERVICE BALTIMORE MD/WASHINGTON DC
100 AM EDT SAT OCT 16 2021

Note: "FAIR" indicates few or no clouds below 12,000 feet
with no significant weather and/or obstructions to visibility.
 TC=TEMPERATURE CELSIUS

 * =Non NWS site. Station does not report precipitation (e.g. rain,
    snow, etc.), thunder, or fog.

DCZ001-MDZ009-015-VAZ040>042-051-053>054-160600-
WASHINGTON METRO

CITY           SKY/WX    TMP DP  RH WIND       PRES   REMARKS
WASHINGTON NAT MOCLDY    70  63  78 S8        29.86F
DULLES         PTCLDY    69  64  84 S8        29.84F
ANDREWS AFB    CLEAR     65  62  92 S9        29.84F
FT BELVOIR     CLEAR     63  62  97 SE3       29.85F
QUANTICO       CLEAR     70  62  76 SW5       29.86F
COLLEGE PARK*  CLEAR     64  62  93 CALM      29.85F
LEESBURG*      CLEAR     68  66  94 SE5       29.85F
MANASSAS*      CLEAR     61  61 100 S5        29.85F
GAITHERSBURG*  CLEAR     67  64  90 SE5       29.87F

$$

MDZ006>007-011-014-160600-
BALTIMORE METRO

CITY           SKY/WX    TMP DP  RH WIND       PRES   REMARKS
BWI AIRPORT    PTCLDY    68  63  84 SE3       29.85F
MARTIN STATE   CLEAR     70  66  88 S3        29.87S
ANNAPOLIS      CLEAR     70  62  76 S7        29.86S
ABERDEEN*      CLEAR     62  61  97 CALM      29.84F
FORT MEADE*    CLEAR     61  61 100 S3        29.88F

$$

MDZ012-015-019>023-160600-
MARYLAND EASTERN SHORE

CITY           SKY/WX    TMP DP  RH WIND       PRES   REMARKS
OCEAN CITY     CLEAR     69  64  84 SW6       29.90F
SALISBURY      CLEAR     63  61  93 S3        29.89F
CAMBRIDGE*     CLEAR     66  66 100 S6        29.88S FOG
EASTON*        CLEAR     67  66  96 CALM      29.91S

$$

MDZ017>025-160600-
SOUTHERN MARYLAND

CITY           SKY/WX    TMP DP  RH WIND       PRES   REMARKS
PATUXENT RIVER CLEAR     69  61  75 S5        29.87F
ST INIGOES     CLEAR     72  63  73 S6        29.87F
LEONARDTOWN*   CLEAR     70  63  78 CALM      29.89F

$$

MDZ003>005-160600-
NORTH CENTRAL MARYLAND

CITY           SKY/WX    TMP DP  RH WIND       PRES   REMARKS
FREDERICK*     CLEAR     68  64  88 CALM      29.84F FOG
HAGERSTOWN APT CLEAR     70  65  84 S9        29.81F
WESTMINSTER*   CLEAR     70  64  83 S6        29.85F

$$

MDZ501>502-160600-
WESTERN MARYLAND

CITY           SKY/WX    TMP DP  RH WIND       PRES   REMARKS
OAKLAND*       PTCLDY    61  61 100 S10       29.86F
CUMBERLAND*    FOG       65  65  99 CALM      29.83F VSB<1/4

$$

VAZ025>031-160600-
SHENANDOAH VALLEY

CITY           SKY/WX    TMP DP  RH WIND       PRES   REMARKS
WINCHESTER*    CLEAR     66  63  88 S3        29.81F
FRONT ROYAL*   CLEAR     68  66  94 MISG      29.82F
LURAY*         CLEAR     68  63  83 SW5       29.84F
NEW MARKET*    CLEAR     70  67  90 SW7       29.83F
STAUNTON*      CLEAR     63  62  96 S3        29.89F
WAYNESBORO*    CLEAR     68  63  84 E6        29.89F

$$

WVZ021-048>050-054>055-160600-
EASTERN WEST VIRGINIA PANHANDLE

CITY           SKY/WX    TMP DP  RH WIND       PRES   REMARKS
MARTINSBURG    CLEAR     62  61  96 CALM      29.80F FOG
PETERSBURG*      N/A     65  65 100 CALM      29.81F FOG

$$

VAZ036>039-050-160600-
CENTRAL FOOTHILLS

CITY           SKY/WX    TMP DP  RH WIND       PRES   REMARKS
CHARLOTTESVILL CLEAR     69  63  81 S6        29.85F
CULPEPER*      CLEAR     64  62  95 CALM      29.86F FOG
ORANGE*        CLEAR     64  64 100 CALM      29.86F
GORDONSVILLE*  CLEAR     64  64 100 CALM      29.86F
WARRENTON*     PTCLDY    60  57  91 CALM      29.85F FOG

$$

VAZ055>057-160600-
NORTH AND CENTRAL PIEDMONT

CITY           SKY/WX    TMP DP  RH WIND       PRES   REMARKS
FREDERICKSBRG* CLEAR     68  63  84 S3        29.85S
STAFFORD*      CLEAR     68  63  82 CALM      29.90S

$$

NCZ024-NYZ072-PAZ021-071-VAZ022-071-160600-
OTHER REGIONAL OBSERVATIONS

CITY           SKY/WX    TMP DP  RH WIND       PRES   REMARKS
NEW YORK CITY  MOCLDY    70  60  70 VRB5      29.88F
PHILADELPHIA   PTCLDY    68  61  78 SW6       29.87F
PITTSBURGH     RAIN      66  65  96 W3        29.75F FOG
RICHMOND       CLEAR     67  62  84 S7        29.88F
RALEIGH        CLEAR     69  62  78 S5        29.90F

$$

ANZ530>537-160600-
MARINE OBSERVATIONS

STATION/POSITION TIME  TEMP    WIND        PRES
                       AIR SEA DIR/SP/G
                 (UTC) (F)     (DEG/KT/KT) (MB)
THOMAS PT LIGHT  0500   72 72  150/ 15/ 16 1011.8F
TOLCHESTER       0430   70 72  150/  4/  6 1011.3F
GOOSES REEF      0454   69 72  180/ 14/ 17 1012.2F
COVE POINT       0430   71     170/ 11/ 14 1011.8F
BALT HARBOR      0430   70 73  190/  1/  3 1010.5F
BALT KEY BRIDGE  0430   71     190/  6/  7 1011.0F
WASH DC CHANNEL  0430   71 71  140/  3/  5 1010.7F
DAHLGREN         0430   69 73  190/  4/  6 1010.8F
LEWISETTA        0430   68 72  210/  5/  5 1011.8F
SOLOMONS ISLAND  0430   70 72  160/  4/  5 1011.6F
PINEY POINT      0430          190/  7/  9   N/A
POTOMAC BUOY     0454   68 72  190/ 12/ 14 1012.5F
CAMBRIDGE PIER   0430   69 71  160/  5/  7 1011.8S
BISHOPS HEAD     0430   72 72  190/ 12/ 14 1012.1F
CHESAPEAKE CITY  0430   65 70  160/  1/  2 1011.5F

$$



 

View Past Reports for Baltimore MD/Washington, DC.

Products Courtesy of NOAA-NWS
NWS Information Parsing Script by Ken True at Saratoga Weather - Script by SE Lincoln Weather.

canadians